Location: *
(49.3500°N, 12.6000°E)
Time: 19:57:53
(UTC+00:00)

STARLINK-38 - Pass Details

Date: 18 October 2019
Orbit: 548 x 551 km, 53.0° (Epoch: 10 November)

Event Time Altitude Azimuth Distance (km) Brightness Sun altitude
Rises 17:14:27 0° 257° (WSW) 2,713 9.2 -10.5°
Reaches altitude 10° 17:16:42 10° 261° (W) 1,821 7.8 -10.9°
Maximum altitude 17:20:49 65° 344° (NNW) 605 3.9 -11.6°
Enters shadow 17:24:03 16° 64° (ENE) 1,481 5.3 -12.1°
